This is the latest recevied weather packets stored in our database for station/object N5YHM-13. If no packets are shown the sender has not sent any weather packets the latest 10 day(s).
| Time | Temp. | Humidity | Pressure | Rain* | Wind** | Luminosity | Snow |
|---|---|---|---|---|---|---|---|
| 1787848942 | 25° C | 99% | 1017.5 hPa | 0 mm | - | 28 W/m² | - |
| 1787848636 | 24.44° C | 99% | 1017.2 hPa | 0 mm | - | 26 W/m² | - |
| 1787848326 | 24.44° C | 99% | 1017.4 hPa | 0 mm | - | 27 W/m² | - |
| 1787848025 | 24.44° C | 99% | 1017.6 hPa | 0 mm | - | 33 W/m² | - |
| 1787847720 | 24.44° C | 99% | 1017.5 hPa | 0 mm | - | 33 W/m² | - |
| 1787847415 | 24.44° C | 99% | 1017.7 hPa | 1.78 mm | - | 34 W/m² | - |
| 1787847110 | 24.44° C | 99% | 1017.5 hPa | 1.78 mm | - | 31 W/m² | - |
| 1787846807 | 24.44° C | 99% | 1017.8 hPa | 0 mm | - | 35 W/m² | - |
| 1787846501 | 24.44° C | 99% | 1017.7 hPa | 0 mm | - | 22 W/m² | - |
| 1787846197 | 24.44° C | 99% | 1017.6 hPa | 0 mm | - | 22 W/m² | - |
| 1787845892 | 24.44° C | 99% | 1017.6 hPa | 1.27 mm | - | 41 W/m² | - |
| 1787845587 | 24.44° C | 99% | 1017.9 hPa | 1.27 mm | - | 38 W/m² | - |
| 1787845282 | 24.44° C | 99% | 1017.8 hPa | 0 mm | - | 21 W/m² | - |
| 1787844978 | 23.89° C | 99% | 1017.9 hPa | 0 mm | - | 24 W/m² | - |
| 1787844673 | 23.89° C | 99% | 1017.8 hPa | 0 mm | - | 26 W/m² | - |
| 1787844372 | 23.33° C | 99% | 1017.8 hPa | 1.78 mm | - | 20 W/m² | - |
| 1787844072 | 23.33° C | 99% | 1017.9 hPa | 1.78 mm | - | 18 W/m² | - |
| 1787843767 | 23.33° C | 99% | 1018 hPa | 0 mm | - | 16 W/m² | - |
| 1787843462 | 23.33° C | 99% | 1018 hPa | 0 mm | - | 15 W/m² | - |
| 1787843159 | 23.33° C | 99% | 1018.2 hPa | 0 mm | - | 18 W/m² | - |
| 1787842860 | 23.33° C | 99% | 1018.2 hPa | 1.78 mm | - | 20 W/m² | - |
| 1787842555 | 23.33° C | 99% | 1018.1 hPa | 1.78 mm | - | 20 W/m² | - |
| 1787842254 | 23.33° C | 99% | 1018.2 hPa | 0 mm | - | 19 W/m² | - |
| 1787841949 | 22.78° C | 99% | 1018.2 hPa | 0 mm | - | 18 W/m² | - |
| 1787841645 | 22.78° C | 99% | 1018 hPa | 1.27 mm | - | 17 W/m² | - |
* Rain latest hour (hover to see other rain measurements)
** Current wind speed in m/s (hover to see current wind gust speed)